Weather History for KOTM - April, 2014

Change the Weather History Date:

Friday, April 11, 2014

  Actual Average Record
Temperature  
Mean Temperature 56 °F 49 °F  
Max Temperature 75 °F 61 °F 89 °F (1930)
Min Temperature 37 °F 38 °F 20 °F (1973)
Degree Days  
Heating Degree Days 9 16  
Month to date heating degree days 208 196  
Since 1 July heating degree days 6699 5892  
Cooling Degree Days 0 0  
Month to date cooling degree days 0 0  
Year to date cooling degree days 0 1  
Growing Degree Days 6 (Base 50)    
Moisture  
Dew Point 28 °F    
Average Humidity 43    
Maximum Humidity 70    
Minimum Humidity 16    
Precipitation  
Precipitation 0.00 in 0.10 in 1.43 in (1970)
Month to date precipitation 0.19 1.06  
Year to date precipitation 2.05 5.48  
Sea Level Pressure  
Sea Level Pressure 29.99 in    
Wind  
Wind Speed 8 mph (SSW)    
Max Wind Speed 20 mph    
Max Gust Speed 26 mph    
Visibility 10 miles    
Events      
T = Trace of Precipitation, MM = Missing Value Source: NWS Daily Summary

Daily Weather History Graph

Daily Weather History Graph

Search for Another Location

Airport or City:

Trip Planner

Search our weather history database for the weather conditions in past years. The results will help you decide how hot, cold, wet, or windy it might be!

Date:

Astronomy

Apr. 11, 2014 Rise Set
Actual Time 6:36 AM CDT 7:45 PM CDT
Civil Twilight 6:08 AM CDT 8:13 PM CDT
Nautical Twilight 5:34 AM CDT 8:47 PM CDT
Astronomical Twilight 4:59 AM CDT 9:23 PM CDT
Moon 4:24 PM CDT (4/11) 4:34 AM CDT (4/11)
Length of Visible Light 14h 05m
Length of Day
13h 08m
Waxing Gibbous, 87% of the Moon is Illuminated
Apr 11
Waxing Gibbous
Apr 15
Full
Apr 22
Last Quarter
Apr 29
New
May 6
First Quarter

Hourly Weather History & Observations

Time (CDT) Temp. Windchill Dew Point Humidity Pressure Visibility Wind Dir Wind Speed Gust Speed Precip Events Conditions
12:53 AM 48.0 °F - 25.0 °F 41% 30.00 in 10.0 mi Calm Calm - N/A   Clear
1:53 AM 46.9 °F - 26.1 °F 44% 30.01 in 10.0 mi NNE 4.6 mph - N/A   Clear
2:53 AM 46.0 °F - 24.1 °F 42% 30.02 in 10.0 mi Calm Calm - N/A   Clear
3:53 AM 37.9 °F 34.4 °F 28.9 °F 70% 30.02 in 10.0 mi South 4.6 mph - N/A   Clear
4:53 AM 41.0 °F 38.0 °F 28.9 °F 62% 30.01 in 10.0 mi South 4.6 mph - N/A   Clear
5:53 AM 39.9 °F 35.8 °F 30.0 °F 68% 30.04 in 10.0 mi South 5.8 mph - N/A   Clear
6:53 AM 37.0 °F 32.4 °F 27.0 °F 67% 30.04 in 10.0 mi South 5.8 mph - N/A   Clear
7:53 AM 46.0 °F 41.4 °F 28.0 °F 50% 30.05 in 10.0 mi South 9.2 mph - N/A   Clear
8:53 AM 53.1 °F - 28.9 °F 40% 30.06 in 10.0 mi South 10.4 mph - N/A   Clear
9:53 AM 61.0 °F - 28.9 °F 30% 30.05 in 10.0 mi SSW 13.8 mph - N/A   Partly Cloudy
10:53 AM 66.0 °F - 24.1 °F 20% 30.06 in 10.0 mi WSW 16.1 mph - N/A   Mostly Cloudy
11:53 AM 68.0 °F - 24.1 °F 19% 30.04 in 10.0 mi WSW 12.7 mph - N/A   Clear
12:53 PM 72.0 °F - 23.0 °F 16% 30.02 in 10.0 mi WSW 15.0 mph 23.0 mph N/A   Clear
1:53 PM 72.0 °F - 27.0 °F 19% 30.00 in 10.0 mi Variable 4.6 mph - N/A   Clear
2:53 PM 73.9 °F - 28.0 °F 18% 29.98 in 10.0 mi Variable 6.9 mph 16.1 mph N/A   Clear
3:53 PM 73.0 °F - 27.0 °F 18% 29.95 in 10.0 mi West 8.1 mph - N/A   Clear
4:53 PM 75.0 °F - 27.0 °F 17% 29.94 in 10.0 mi WNW 13.8 mph 17.3 mph N/A   Clear
5:53 PM 73.0 °F - 25.0 °F 17% 29.93 in 9.0 mi SSW 3.5 mph - N/A   Clear
6:53 PM 72.0 °F - 28.0 °F 20% 29.93 in 10.0 mi South 8.1 mph - N/A   Clear
7:53 PM 63.0 °F - 30.0 °F 29% 29.92 in 10.0 mi South 5.8 mph - N/A   Clear
8:53 PM 59.0 °F - 30.0 °F 33% 29.94 in 9.0 mi South 8.1 mph - N/A   Clear
9:53 PM 57.9 °F - 30.9 °F 36% 29.94 in 9.0 mi South 10.4 mph - N/A   Clear
10:53 PM 57.0 °F - 32.0 °F 39% 29.94 in 10.0 mi South 11.5 mph - N/A   Clear
11:53 PM 57.0 °F - 33.1 °F 40% 29.93 in 10.0 mi South 8.1 mph - N/A   Clear